Fort Lewis, WA

2:33 AM PDT on March 27, 2017 (GMT -0700)
Gray Army Air Field

Weather History for KGRF - September, 2013

Change the Weather History Date:

Wednesday, September 18, 2013

  Actual Average Record
Temperature  
Mean Temperature 57 °F -  
Max Temperature 68 °F 69 °F 83 °F (2012)
Min Temperature 46 °F 46 °F 41 °F (1996)
Degree Days  
Heating Degree Days 8    
Growing Degree Days 7 (Base 50)    
Moisture  
Dew Point 50 °F    
Average Humidity 90    
Maximum Humidity 100    
Minimum Humidity 50    
Precipitation  
Precipitation 0.00 in - - ()
Sea Level Pressure  
Sea Level Pressure 30.03 in    
Wind  
Wind Speed 5 mph (SSE)    
Max Wind Speed 8 mph    
Max Gust Speed -    
Visibility 8 miles    
Events Rain    
Averages and records for this station are not official NWS values.
T = Trace of Precipitation, MM = Missing Value Source: NWS Daily Summary

Daily Weather History Graph

Daily Weather History Graph

Search for Another Location

Airport or City:

Trip Planner

Search our weather history database for the weather conditions in past years. The results will help you decide how hot, cold, wet, or windy it might be!

Date:

Astronomy

Sep. 18, 2013 Rise Set
Actual Time 6:52 AM PDT 7:15 PM PDT
Civil Twilight 6:21 AM PDT 7:45 PM PDT
Nautical Twilight 5:45 AM PDT 8:21 PM PDT
Astronomical Twilight 5:08 AM PDT 8:59 PM PDT
Moon 6:40 PM PDT (9/18) 6:00 AM PDT (9/18)
Length of Visible Light 13h 24m
Length of Day
12h 23m
Waxing Gibbous, 99% of the Moon is Illuminated
Sep 18
Waxing Gibbous
Sep 19
Full
Sep 26
Last Quarter
Oct 4
New
Oct 11
First Quarter

Hourly Weather History & Observations

Time (PDT) Temp. Windchill Dew Point Humidity Pressure Visibility Wind Dir Wind Speed Gust Speed Precip Events Conditions
12:03 AM 51.8 °F - 51.8 °F 100% 29.95 in 9.0 mi SE 8.1 mph - N/A   Clear
12:23 AM 51.8 °F - 51.8 °F 100% 29.95 in 9.0 mi SE 8.1 mph - N/A   Clear
12:58 AM 52.5 °F - 52.3 °F 99% 29.97 in 10.0 mi SSE 8.1 mph - N/A   Clear
1:11 AM 51.8 °F - 51.8 °F 100% 29.96 in 10.0 mi SSE 8.1 mph - N/A   Light Drizzle
1:50 AM 51.8 °F - 51.8 °F 100% 29.97 in 10.0 mi SE 6.9 mph - N/A   Clear
1:58 AM 51.8 °F - 51.8 °F 100% 29.98 in 10.0 mi SE 5.8 mph - 0.00 in   Clear
1:59 AM 51.8 °F - 51.8 °F 100% 29.97 in 10.0 mi SE 5.8 mph - N/A   Light Drizzle
2:51 AM 50.0 °F - 50.0 °F 100% 29.98 in 10.0 mi SE 5.8 mph - N/A   Clear
2:58 AM 49.6 °F - 49.3 °F 99% 29.99 in 10.0 mi SE 5.8 mph - 0.00 in   Clear
3:03 AM 48.2 °F - 48.2 °F 100% 29.98 in 8.0 mi SE 5.8 mph - N/A   Clear
3:13 AM 48.2 °F - 48.2 °F 100% 29.98 in 5.0 mi SE 5.8 mph - N/A   Clear
3:16 AM 48.2 °F - 48.2 °F 100% 29.98 in 5.0 mi SE 5.8 mph - N/A Rain Light Rain
3:31 AM 50.0 °F - 50.0 °F 100% 29.98 in 7.0 mi SE 5.8 mph - N/A   Clear
3:35 AM 50.0 °F - 48.2 °F 94% 29.98 in 10.0 mi SE 5.8 mph - N/A Rain Light Rain
3:58 AM 49.8 °F - 49.5 °F 99% 30.00 in 10.0 mi SE 4.6 mph - 0.00 in Rain Light Rain
4:05 AM 48.2 °F - 48.2 °F 100% 29.99 in 10.0 mi SE 4.6 mph - N/A   Clear
4:58 AM 49.5 °F - 49.3 °F 99% 30.01 in 10.0 mi SE 6.9 mph - 0.00 in   Clear
5:03 AM 50.0 °F - 48.2 °F 94% 30.00 in 6.0 mi SE 5.8 mph - N/A   Clear
5:13 AM 50.0 °F - 50.0 °F 100% 30.01 in 10.0 mi SE 4.6 mph - N/A   Partly Cloudy
5:28 AM 50.0 °F - 48.2 °F 94% 30.01 in 6.0 mi SSE 4.6 mph - N/A   Partly Cloudy
5:33 AM 48.2 °F - 48.2 °F 100% 30.01 in 3.0 mi SE 3.5 mph - N/A   Partly Cloudy
5:38 AM 48.2 °F - 48.2 °F 100% 30.01 in 1.8 mi East 2.3 mph - N/A   Partly Cloudy
5:43 AM 50.0 °F - 48.2 °F 94% 30.01 in 2.0 mi ENE 2.3 mph - N/A   Clear
5:48 AM 50.0 °F - 48.2 °F 94% 30.01 in 7.0 mi ESE 2.3 mph - N/A   Clear
5:53 AM 48.2 °F - 48.2 °F 100% 30.01 in 9.0 mi SSE 1.2 mph - N/A   Clear
5:58 AM 48.6 °F - 48.4 °F 99% 30.03 in 8.0 mi SSE 3.5 mph - N/A   Clear
6:03 AM 48.2 °F - 46.4 °F 93% 30.01 in 2.5 mi SSE 4.6 mph - N/A   Clear
6:08 AM 46.4 °F 43.5 °F 46.4 °F 100% 30.01 in 1.5 mi SSE 5.8 mph - N/A   Clear
6:13 AM 46.4 °F 42.9 °F 46.4 °F 100% 30.01 in 1.8 mi SE 6.9 mph - N/A   Clear
6:23 AM 48.2 °F - 48.2 °F 100% 30.01 in 1.5 mi SE 4.6 mph - N/A   Clear
6:28 AM 48.2 °F - 48.2 °F 100% 30.01 in 2.5 mi SE 4.6 mph - N/A   Clear
6:33 AM 48.2 °F - 48.2 °F 100% 30.02 in 8.0 mi ENE 1.2 mph - N/A   Clear
6:38 AM 48.2 °F - 48.2 °F 100% 30.02 in 10.0 mi East 1.2 mph - N/A   Clear
6:58 AM 48.0 °F - 47.7 °F 99% 30.04 in 10.0 mi NE 2.3 mph - N/A   Clear
7:23 AM 48.2 °F - 48.2 °F 100% 30.03 in 2.0 mi Calm Calm - N/A   Clear
7:28 AM 48.2 °F - 46.4 °F 93% 30.03 in 0.8 mi SSE 2.3 mph - N/A   Scattered Clouds
7:33 AM 48.2 °F - 46.4 °F 93% 30.04 in 0.8 mi SSE 2.3 mph - N/A   Mist
7:38 AM 48.2 °F - 48.2 °F 100% 30.04 in 1.0 mi SE 2.3 mph - N/A   Mostly Cloudy
7:43 AM 48.2 °F - 48.2 °F 100% 30.04 in 1.5 mi SE 1.2 mph - N/A   Mostly Cloudy
7:48 AM 48.2 °F - 48.2 °F 100% 30.04 in 4.0 mi Calm Calm - N/A   Mostly Cloudy
7:58 AM 48.7 °F - 48.4 °F 99% 30.06 in 10.0 mi Calm Calm - N/A   Mostly Cloudy
8:08 AM 50.0 °F - 50.0 °F 100% 30.04 in 10.0 mi Calm Calm - N/A   Scattered Clouds
8:14 AM 50.0 °F - 50.0 °F 100% 30.04 in 10.0 mi Calm Calm - N/A Rain Light Rain
8:58 AM 53.8 °F - 53.4 °F 99% 30.06 in 10.0 mi Calm Calm - 0.00 in Rain Light Rain
9:03 AM 53.6 °F - 53.6 °F 100% 30.05 in 10.0 mi WSW 3.5 mph - N/A Rain Light Rain
9:04 AM 53.6 °F - 53.6 °F 100% 30.05 in 10.0 mi SW 3.5 mph - N/A   Mostly Cloudy
9:13 AM 55.4 °F - 55.4 °F 100% 30.05 in 10.0 mi Variable 2.3 mph - N/A Rain Light Rain
9:26 AM 55.4 °F - 53.6 °F 94% 30.06 in 10.0 mi SW 4.6 mph - N/A   Mostly Cloudy
9:29 AM 55.4 °F - 53.6 °F 94% 30.06 in 10.0 mi Variable 3.5 mph - N/A Rain Light Rain
9:39 AM 55.4 °F - 53.6 °F 94% 30.06 in 10.0 mi SSW 2.3 mph - N/A Rain Light Rain
9:58 AM 56.5 °F - 53.1 °F 88% 30.08 in 10.0 mi SW 5.8 mph - 0.00 in   Light Drizzle
10:01 AM 57.2 °F - 53.6 °F 88% 30.07 in 10.0 mi WSW 5.8 mph - N/A   Mostly Cloudy
10:02 AM 57.2 °F - 53.6 °F 88% 30.07 in 10.0 mi WSW 5.8 mph - N/A   Light Drizzle
10:07 AM 57.2 °F - 53.6 °F 88% 30.07 in 10.0 mi SW 4.6 mph - N/A   Light Drizzle
10:28 AM 57.2 °F - 51.8 °F 82% 30.07 in 10.0 mi SW 3.5 mph - N/A   Partly Cloudy
10:58 AM 58.6 °F - 52.2 °F 79% 30.08 in 10.0 mi SW 4.6 mph - 0.00 in   Partly Cloudy
11:23 AM 60.8 °F - 51.8 °F 72% 30.07 in 10.0 mi WSW 4.6 mph - N/A   Mostly Cloudy
11:48 AM 60.8 °F - 51.8 °F 72% 30.07 in 10.0 mi SW 4.6 mph - N/A   Scattered Clouds
11:58 AM 60.8 °F - 50.9 °F 70% 30.09 in 10.0 mi SSW 3.5 mph - N/A   Partly Cloudy
12:58 PM 64.2 °F - 51.4 °F 63% 30.09 in 10.0 mi WNW 3.5 mph - N/A   Scattered Clouds
1:58 PM 64.6 °F - 47.5 °F 54% 30.08 in 10.0 mi WNW 4.6 mph - N/A   Clear
2:02 PM 64.4 °F - 50.0 °F 59% 30.07 in 10.0 mi NNW 2.3 mph - N/A   Drizzle
2:10 PM 66.2 °F - 50.0 °F 56% 30.07 in 10.0 mi WNW 5.8 mph - N/A   Clear
2:58 PM 66.2 °F - 48.2 °F 52% 30.08 in 10.0 mi Variable 2.3 mph - N/A   Clear
3:58 PM 67.8 °F - 48.4 °F 50% 30.07 in 10.0 mi Variable 3.5 mph - N/A   Scattered Clouds
4:58 PM 68.0 °F - 50.2 °F 53% 30.06 in 10.0 mi Variable 5.8 mph - N/A   Clear
5:58 PM 66.4 °F - 51.4 °F 59% 30.07 in 10.0 mi WNW 8.1 mph - N/A   Partly Cloudy
6:55 PM 64.4 °F - 51.4 °F 63% 30.06 in 10.0 mi Calm Calm - N/A   Clear
7:55 PM 61.2 °F - 52.3 °F 73% 30.06 in 10.0 mi Calm Calm - N/A   Clear
8:55 PM 57.6 °F - 52.5 °F 83% 30.08 in 10.0 mi Calm Calm - N/A   Clear
9:55 PM 55.4 °F - 51.8 °F 88% 30.07 in 10.0 mi Calm Calm - N/A   Clear
10:58 PM 52.7 °F - 51.3 °F 95% 30.06 in 10.0 mi SE 3.5 mph - N/A   Clear
11:58 PM 51.6 °F - 50.9 °F 97% 30.05 in 10.0 mi ESE 3.5 mph - N/A   Clear